FW8607 Weather Reports


time (UTC)temp
F
wind
direction
speed
knots
gust
knots
rain 1hr
in
rain 24hr
in
rain mn
in
humidity
%
barometer
mb
20260903153019 66 90 0.9 3.5 0.00 0.00 0.00 57 1014.2
20260903150019 63 113 2.6 5.2 0.00 0.00 0.00 65 1014.1
20260903143019 58 90 0.9 5.2 0.00 0.00 0.00 78 1013.9
20260903140019 57 135 3.5 6.1 0.00 0.00 0.00 79 1013.8
20260903133019 57 135 3.5 7.0 0.00 0.00 0.00 81 1013.5
20260903130019 57 135 3.5 7.0 0.00 0.00 0.00 82 1013.5
20260903123019 56 135 3.5 7.0 0.00 0.00 0.00 85 1013.5
20260903120019 57 135 2.6 6.1 0.00 0.00 0.00 88 1013.5
20260903113018 58 135 2.6 4.3 0.00 0.00 0.00 88 1013.7
20260903110039 58 135 2.6 4.3 0.00 0.00 0.00 88 1013.8
20260903103018 58 135 2.6 5.2 0.00 0.00 0.00 88 1013.8
20260903100038 58 158 1.7 6.1 0.00 0.00 0.00 87 1013.8
20260903093019 59 113 1.7 4.3 0.00 0.00 0.00 87 1014.1
20260903090018 61 0.0 0.0 0.00 0.00 0.00 88 1014.5
20260903083018 61 0.0 0.0 0.00 0.00 0.00 87 1014.9
20260903080019 61 158 1.7 4.3 0.00 0.00 0.00 86 1015.1
20260903073018 61 135 1.7 3.5 0.00 0.00 0.00 85 1014.9
20260903070038 62 135 1.7 2.6 0.00 0.00 0.00 85 1014.9
20260903063018 63 0.0 0.0 0.00 0.00 0.00 86 1014.8
20260903060018 63 0.0 0.0 0.00 0.00 0.00 86 1015.0
20260903053018 63 0.0 1.7 0.00 0.00 0.00 84 1014.9
20260903050018 64 248 1.7 2.6 0.00 0.00 0.00 82 1014.9
20260903043018 64 248 1.7 3.5 0.00 0.00 0.00 81 1014.7
20260903040018 65 248 2.6 6.1 0.00 0.00 0.00 79 1014.5
20260903033038 66 270 3.5 7.0 0.00 0.00 0.00 77 1014.2
20260903030018 67 270 4.3 7.8 0.00 0.00 0.00 74 1013.8
20260903023018 69 248 5.2 9.6 0.00 0.00 0.00 70 1013.5
20260903020017 72 248 7.0 10.4 0.00 0.00 0.00 64 1013.6
20260903013018 74 248 6.1 11.3 0.00 0.00 0.00 60 1013.7
20260903010017 76 248 7.0 13.0 0.00 0.00 0.00 57 1013.8
20260903003039 76 248 7.8 12.2 0.00 0.00 0.00 56 1013.6
20260903000019 77 248 8.7 13.0 0.00 0.00 0.00 56 1013.8
20260902233019 78 248 7.8 14.8 0.00 0.00 0.00 55 1013.9
20260902230019 78 248 9.6 15.6 0.00 0.00 0.00 55 1014.0
20260902223019 79 248 10.4 16.5 0.00 0.00 0.00 54 1014.2
20260902220019 79 248 10.4 18.2 0.00 0.00 0.00 54 1014.3
20260902213019 80 248 11.3 19.1 0.00 0.00 0.00 52 1014.4
20260902210019 82 248 8.7 16.5 0.00 0.00 0.00 47 1014.6
20260902203019 84 248 7.8 13.0 0.00 0.00 0.00 40 1014.5
20260902200019 83 248 6.1 12.2 0.00 0.00 0.00 38 1015.1
20260902193019 83 248 6.1 13.9 0.00 0.00 0.00 41 1015.4
20260902190018 82 248 6.1 11.3 0.00 0.00 0.00 38 1015.7
20260902183018 79 248 7.0 12.2 0.00 0.00 0.00 40 1015.9
20260902180039 77 270 4.3 10.4 0.00 0.00 0.00 58 1015.8
20260902173018 76 270 1.7 7.8 0.00 0.00 0.00 63 1015.9
20260902170018 71 293 0.9 6.1 0.00 0.00 0.00 71 1015.8
20260902163018 68 293 2.6 6.1 0.00 0.00 0.00 79 1015.7
20260902160018 65 315 0.9 7.0 0.00 0.00 0.00 87 1015.8